Weather in Kyzyl-Mazhalyk

Russia / Tyva Republic     51°08′44″N   90°34′44″E
temp.,
°C
wind,
m/s
gust,
m/s
humid.,
%
clouds,
%
prec.,
mm/h
press.,
hPa
HPBL,
m
2 july, sat
sat201:00+14nne1180100 14.6 100587
04:00+13nnw117877 0.4 100420
07:00+11nnw3469100 1.8 1008395
10:00+15sse135132 0.1 10081413
13:00+19s334216 0.2 10051430
16:00+21ese023498 0.0 10041977
19:00+18ene4442100 0.1 10051036
22:00+14nw1166100 1.3 100831
3 july, sun
sun301:00+11wnw3487100 5.4 1009289
04:00+10nw458395 1.8 1009280
07:00+9nw3376100 2.5 1010325
10:00+11nnw126770 0.1 1009422
13:00+17ese224640 0.2 10061769
16:00+19ene223790 0.4 10042081
19:00+16nnw6854100 0.8 1006656
22:00+12nnw3269100 0.4 100826
4 july, mon
mon401:00+10nnw227434 0.4 100816
04:00+8nnw22745 0.0 100915
07:00+12nnw11605 0.0 1009194
10:00+16sse11460 0.0 1007881
13:00+20se11341 0.0 10051658
16:00+22sse11275 0.0 10031938
19:00+22wsw112883 0.0 10031816
22:00+15n33545 0.0 100526
5 july, tue
tue501:00+12nnw2261100 0.0 100617
04:00+10n1167100 0.0 100510
07:00+14se1156100 0.0 1006174
10:00+18ese114596 0.0 1004827
13:00+23nne113496 0.0 10011115
16:00+24s122996 0.0 9981486
19:00+19sw3550100 0.0 1000388
22:00+16w1272100 0.4 100489
6 july, wed
wed601:00+14nw2380100 1.3 1005105
04:00+13wnw2178100 0.1 100414
07:00+15nw126310 0.1 1005172
10:00+21wnw144023 0.1 10041694
13:00+24nw472764 0.1 10033145
16:00+24wnw682772 0.0 10033005
19:00+22nw553219 0.0 10042014
22:00+17ne2256100 0.4 100728